Powrót do katalogu

DELTA 2 R/B(2)

AktywnyGTO
NORAD 22098·ROCKET BODY·🇺🇸 United States

Wystrzelony Aug 31, 1992 z Cape Canaveral Space Force Station

Loading…

TLE

Starzejące sięSource: Space-Track

Epoka: Sep 14, 2026, 17:22 UTC

1 22098U 92057C   26257.72388071 -.00000070  00000-0  00000-0 0  9990
2 22098  20.1465 275.2337 6762372 176.9218 229.0410  2.17559293270513

Śledź DELTA 2 R/B(2) w czasie rzeczywistym z AllMySat

Download on the App Store